Location: Eagle Observatory
(42.5300°N, 88.2800°W)
Time: 03:40:45
(UTC-05:00)

Hubble Space Telescope - Visible Passes

Search period start: 01 October 2016 00:00
Search period end: 11 October 2016 00:00
Orbit: 539 x 542 km, 28.5° (Epoch: 30 September)

Date Brightness Start Highest point End Pass type
(mag) Time Alt. Az. Time Alt. Az. Time Alt. Az.
08 Oct 3.2 19:47:25 10° S 19:48:01 10° S 19:48:37 10° SSE visible
09 Oct 3.2 19:36:55 10° S 19:38:02 11° S 19:39:10 10° SSE visible
10 Oct 3.2 19:26:44 10° SSW 19:28:04 11° S 19:29:24 10° SSE visible
